CW4778 Weather Reports


time (UTC)temp
F
wind
direction
speed
knots
gust
knots
rain 1hr
in
rain 24hr
in
rain mn
in
humidity
%
barometer
mb
20260506034305 66 49 8.7 13.0 0.00 0.00 0.00 85 1028.5
20260506033804 66 50 8.7 12.2 0.00 0.00 0.00 85 1028.5
20260506031805 66 53 7.8 13.9 0.00 0.00 0.00 85 1028.5
20260506030805 67 54 10.4 13.9 0.00 0.00 0.00 84 1028.5
20260506030305 68 54 10.4 12.2 0.00 0.00 0.00 84 1028.5
20260506025805 67 54 11.3 14.8 0.00 0.00 0.00 84 1028.5
20260506024304 67 56 8.7 13.9 0.00 0.00 0.00 84 1028.6
20260506023804 67 56 11.3 18.2 0.00 0.00 0.00 84 1028.6
20260506023305 68 56 12.2 15.6 0.00 0.00 0.00 83 1028.6
20260506022306 67 56 8.7 13.0 0.00 0.00 0.00 83 1028.6
20260506021805 68 61 11.3 17.4 0.00 0.00 0.00 83 1028.6
20260506021305 68 61 11.3 17.4 0.00 0.00 0.00 83 1028.6
20260506020805 68 61 7.8 12.2 0.00 0.00 0.00 85 1028.6
20260506020305 68 64 11.3 14.8 0.00 0.00 0.00 84 1028.6
20260506014804 68 64 8.7 11.3 0.00 0.00 0.00 84 1028.8
20260506014305 68 64 10.4 13.9 0.00 0.00 0.00 85 1028.8
20260506013305 68 64 8.7 12.2 0.00 0.00 0.00 84 1028.8
20260506012805 68 64 8.7 13.0 0.00 0.00 0.00 84 1028.9
20260506012307 68 64 8.7 13.0 0.00 0.00 0.00 85 1028.9
20260506010805 68 65 11.3 14.8 0.00 0.00 0.00 84 1028.9
20260506010305 68 64 8.7 15.6 0.00 0.00 0.00 85 1029.0
20260506004805 69 64 9.6 13.9 0.00 0.00 0.00 85 1029.1
20260506004305 69 63 6.1 12.2 0.00 0.00 0.00 87 1029.1
20260506003805 68 61 7.8 12.2 0.00 0.00 0.00 87 1029.1
20260506002804 68 60 7.8 13.9 0.00 0.00 0.00 85 1029.3
20260506002306 69 61 7.8 12.2 0.00 0.00 0.00 85 1029.5
20260505234805 68 73 6.1 12.2 0.00 0.00 0.00 86 1029.9
20260505234304 69 72 5.2 7.8 0.00 0.00 0.00 85 1030.0
20260505233304 69 62 6.1 10.4 0.00 0.00 0.00 86 1030.0
20260505232805 70 61 7.0 12.2 0.00 0.00 0.00 84 1030.1
20260505232305 71 60 5.2 10.4 0.00 0.00 0.00 84 1030.1
20260505230304 70 75 5.2 10.4 0.00 0.00 0.00 83 1030.3
20260505224305 71 42 5.2 8.7 0.00 0.00 0.00 83 1030.5
20260505223804 71 68 5.2 7.8 0.00 0.00 0.00 84 1030.6
20260505222804 69 69 6.1 8.7 0.00 0.00 0.00 86 1030.6
20260505222306 68 73 5.2 8.7 0.00 0.00 0.00 87 1030.5
20260505221306 65 75 5.2 8.7 0.00 0.00 0.00 90 1030.8
20260505220805 66 62 5.2 7.8 0.00 0.00 0.00 90 1030.9
20260505212805 68 79 4.3 8.7 0.00 0.00 0.00 91 1031.0
20260505212306 66 89 4.3 7.0 0.00 0.00 0.00 90 1031.0
20260505211804 66 74 4.3 7.0 0.00 0.00 0.00 89 1031.0
20260505205305 67 82 4.3 6.1 0.00 0.00 0.00 88 1030.9
20260505204304 66 92 5.2 7.0 0.00 0.00 0.00 90 1030.9
20260505202805 63 53 1.7 4.3 0.00 0.00 0.00 96 1031.0
20260505201805 61 76 1.7 5.2 0.00 0.00 0.00 97 1030.7
20260505201305 60 70 3.5 6.1 0.00 0.00 0.00 97 1030.7
20260505195305 60 67 2.6 6.1 0.00 0.00 0.00 97 1030.5
20260505194804 59 65 1.7 4.3 0.00 0.00 0.00 98 1030.5
20260505194305 59 76 2.6 6.1 0.00 0.00 0.00 97 1030.5
20260505193805 59 92 0.9 2.6 0.00 0.00 0.00 97 1030.5
20260505193304 59 92 0.9 1.7 0.00 0.00 0.00 97 1030.5
20260505191304 59 93 1.7 2.6 0.00 0.00 0.00 97 1030.4
20260505190804 59 92 2.6 5.2 0.00 0.00 0.00 97 1030.3
20260505190305 59 86 3.5 6.1 0.00 0.00 0.00 97 1030.3
20260505185805 59 90 2.6 6.1 0.00 0.00 0.00 97 1030.3
20260505184805 59 79 1.7 6.1 0.00 0.00 0.00 97 1030.2
20260505183804 59 53 0.9 5.2 0.00 0.00 0.00 97 1030.2
20260505183304 60 59 0.0 1.7 0.00 0.00 0.00 97 1030.2
20260505182306 60 60 0.9 1.7 0.00 0.00 0.00 97 1030.1
20260505181304 60 61 2.6 5.2 0.00 0.00 0.00 97 1030.1
20260505180804 59 73 1.7 4.3 0.00 0.00 0.00 97 1030.1
20260505175804 59 77 1.7 2.6 0.00 0.00 0.00 97 1030.1
20260505175305 59 77 1.7 4.3 0.00 0.00 0.00 97 1030.1
20260505174805 59 79 1.7 4.3 0.00 0.00 0.00 96 1030.0
20260505173304 59 78 2.6 5.2 0.00 0.00 0.00 96 1030.1
20260505172306 59 73 1.7 4.3 0.00 0.00 0.00 96 1030.1
20260505170804 60 84 3.5 5.2 0.00 0.00 0.00 95 1030.2
20260505165804 60 101 4.3 6.1 0.00 0.00 0.00 95 1030.3
20260505165306 60 93 2.6 5.2 0.00 0.00 0.00 95 1030.3
20260505164805 60 95 4.3 7.0 0.00 0.00 0.00 95 1030.3
20260505163805 60 89 2.6 6.1 0.00 0.00 0.00 95 1030.3
20260505163304 60 87 1.7 2.6 0.00 0.00 0.00 95 1030.4
20260505162804 61 81 2.6 4.3 0.00 0.00 0.00 95 1030.4
20260505161304 61 80 2.6 7.0 0.00 0.00 0.00 95 1030.3
20260505160305 61 89 5.2 7.8 0.00 0.00 0.00 95 1030.2
20260505151804 60 89 4.3 7.0 0.00 0.00 0.00 95 1030.5
20260505150305 61 91 4.3 7.0 0.00 0.00 0.00 95 1030.7
20260505130305 61 92 1.7 2.6 0.00 0.00 0.00 93 1031.7
20260505124805 61 87 4.3 6.1 0.00 0.00 0.00 93 1031.8
20260505124304 61 94 5.2 7.8 0.00 0.00 0.00 93 1031.7
20260505123304 61 91 4.3 6.1 0.00 0.00 0.00 93 1031.8
20260505122306 61 86 2.6 5.2 0.00 0.00 0.00 93 1031.8
20260505121304 61 91 2.6 5.2 0.00 0.00 0.00 93 1031.8
20260505120840 61 90 3.5 6.1 0.00 0.00 0.00 93 1031.9
20260505115305 61 95 3.5 7.8 0.00 0.00 0.00 92 1031.9
20260505114805 61 92 2.6 7.8 0.00 0.00 0.00 92 1031.8
20260505113805 61 88 4.3 6.1 0.00 0.00 0.00 92 1031.8
20260505113304 61 107 5.2 6.1 0.00 0.00 0.00 92 1031.7
20260505111304 61 66 2.6 6.1 0.00 0.00 0.00 92 1031.9
20260505110304 61 101 3.5 7.0 0.00 0.00 0.00 92 1032.0
20260505101805 61 96 2.6 6.1 0.00 0.00 0.00 91 1032.3
20260505100305 61 71 2.6 7.0 0.00 0.00 0.00 91 1032.3
20260505095805 61 81 3.5 5.2 0.00 0.00 0.00 91 1032.4
20260505095305 61 100 2.6 5.2 0.00 0.00 0.00 91 1032.3
20260505093305 61 55 2.6 6.1 0.00 0.00 0.00 90 1032.3
20260505092805 61 80 3.5 7.0 0.00 0.00 0.00 90 1032.3
20260505092305 61 61 3.5 6.1 0.00 0.00 0.00 90 1032.3
20260505091805 61 87 2.6 5.2 0.00 0.00 0.00 91 1032.3
20260505085805 61 58 2.6 4.3 0.00 0.00 0.00 92 1032.2
20260505085305 60 52 3.5 5.2 0.00 0.00 0.00 92 1032.2
20260505084804 60 64 3.5 6.1 0.00 0.00 0.00 91 1032.2
20260505084305 60 87 2.6 6.1 0.00 0.00 0.00 92 1032.2
20260505083804 60 57 2.6 5.2 0.00 0.00 0.00 92 1032.2
20260505082805 60 75 2.6 4.3 0.00 0.00 0.00 92 1032.1
20260505081805 60 86 2.6 4.3 0.00 0.00 0.00 92 1032.1
20260505080805 60 75 0.9 4.3 0.00 0.00 0.00 91 1032.1
20260505080305 60 91 4.3 7.0 0.00 0.00 0.00 91 1032.1
20260505075805 60 84 2.6 4.3 0.00 0.00 0.00 91 1032.0
20260505074305 60 87 4.3 6.1 0.00 0.00 0.00 90 1032.1
20260505073805 60 93 1.7 7.8 0.00 0.00 0.00 90 1032.1
20260505073305 60 86 5.2 7.8 0.00 0.00 0.00 90 1032.0
20260505071804 61 91 2.6 7.0 0.00 0.00 0.00 89 1032.0
20260505070305 61 89 5.2 7.8 0.00 0.00 0.00 89 1031.8
20260505065804 61 91 5.2 10.4 0.00 0.00 0.00 89 1031.8
20260505065304 61 83 4.3 7.8 0.00 0.00 0.00 89 1031.8
20260505063804 61 93 7.8 11.3 0.00 0.00 0.00 89 1031.8
20260505060304 62 70 5.2 8.7 0.00 0.00 0.00 88 1031.9
20260505054804 62 72 5.2 8.7 0.00 0.00 0.00 87 1031.8
20260505054305 62 68 4.3 7.8 0.00 0.00 0.00 88 1031.8
20260505053304 62 71 4.3 10.4 0.00 0.00 0.00 88 1031.8
20260505052804 62 81 6.1 10.4 0.00 0.00 0.00 88 1031.8
20260505051804 62 75 5.2 7.0 0.00 0.00 0.00 88 1031.9
20260505051304 62 68 4.3 7.8 0.00 0.00 0.00 87 1032.0
20260505050805 62 75 5.2 8.7 0.00 0.00 0.00 87 1032.0
20260505050304 63 82 5.2 10.4 0.00 0.00 0.00 87 1032.0
20260505041305 63 78 7.8 14.8 0.00 0.00 0.00 87 1032.1
20260505040304 63 93 6.1 11.3 0.00 0.00 0.00 86 1032.1
20260505035304 64 83 7.0 14.8 0.00 0.00 0.00 86 1032.0